2024/01/31 00:00:00,32.0, 0.6
2024/01/31 00:10:00,32.1, 0.8
2024/01/31 00:20:00,32.1, 0.6
2024/01/31 00:30:00,32.1, 1.0
2024/01/31 00:40:00,32.1, 0.6
2024/01/31 00:50:00,32.1, 0.6
2024/01/31 01:00:00,32.1, 1.0
2024/01/31 01:10:00,32.0, 0.7
2024/01/31 01:20:00,32.1, 0.8
2024/01/31 01:30:00,32.1, 0.6
2024/01/31 01:40:00,32.1, 0.8
2024/01/31 01:50:00,32.2, 1.1
2024/01/31 02:00:00,32.3, 0.9
2024/01/31 02:10:00,32.3, 1.3
2024/01/31 02:20:00,32.2, 1.3
2024/01/31 02:30:00,32.2, 1.4
2024/01/31 02:40:00,32.2, 1.5
2024/01/31 02:50:00,32.1, 1.5
2024/01/31 03:00:00,32.1, 1.6
2024/01/31 03:10:00,32.0, 1.8
2024/01/31 03:20:00,32.0, 1.6
2024/01/31 03:30:00,31.9, 1.7
2024/01/31 03:40:00,31.9, 1.8
2024/01/31 03:50:00,31.8, 1.7
2024/01/31 04:00:00,31.8, 1.7
2024/01/31 04:10:00,31.8, 1.9
2024/01/31 04:20:00,31.8, 1.9
2024/01/31 04:30:00,31.7, 1.7
2024/01/31 04:40:00,31.7, 1.7
2024/01/31 04:50:00,31.7, 1.8
2024/01/31 05:00:00,31.7, 1.9
2024/01/31 05:10:00,31.7, 1.8
2024/01/31 05:20:00,31.7, 2.1
2024/01/31 05:30:00,31.7, 2.2
2024/01/31 05:40:00,31.7, 2.0
2024/01/31 05:50:00,31.7, 2.2
2024/01/31 06:00:00,31.7, 2.2
2024/01/31 06:10:00,31.7, 2.2
2024/01/31 06:20:00,31.6, 2.2
2024/01/31 06:30:00,31.6, 2.2
2024/01/31 06:40:00,31.6, 2.2
2024/01/31 06:50:00,31.5, 2.3
2024/01/31 07:00:00,31.6, 2.4
2024/01/31 07:10:00,31.5, 2.4
2024/01/31 07:20:00,31.6, 2.4
2024/01/31 07:30:00,31.5, 2.8
2024/01/31 07:40:00,31.4, 2.7
2024/01/31 07:50:00,31.4, 2.5
2024/01/31 08:00:00,31.4, 2.4
2024/01/31 08:10:00,31.3, 2.8
2024/01/31 08:20:00,31.3, 2.8
2024/01/31 08:30:00,31.3, 2.8
2024/01/31 08:40:00,31.2, 2.8
2024/01/31 08:50:00,31.2, 2.9
2024/01/31 09:00:00,30.9, 3.1
2024/01/31 09:10:00,30.8, 3.4
2024/01/31 09:20:00,30.6, 3.5
2024/01/31 09:30:00,30.8, 3.4
2024/01/31 09:40:00,30.5, 3.6
2024/01/31 09:50:00,30.1, 4.0
2024/01/31 10:00:00,29.9, 4.3
2024/01/31 10:10:00,30.3, 4.1
2024/01/31 10:20:00,30.5, 3.8
2024/01/31 10:30:00,30.4, 3.6
2024/01/31 10:40:00,30.5, 3.4
2024/01/31 10:50:00,30.6, 3.4
2024/01/31 11:00:00,30.5, 3.6
2024/01/31 11:10:00,30.1, 3.7
2024/01/31 11:20:00,30.2, 3.6
2024/01/31 11:30:00,30.1, 3.6
2024/01/31 11:40:00,30.0, 3.8
2024/01/31 11:50:00,30.1, 3.5
2024/01/31 12:00:00,30.0, 3.6
2024/01/31 12:10:00,29.6, 4.0
2024/01/31 12:20:00,29.5, 4.2
2024/01/31 12:30:00,29.5, 4.5
2024/01/31 12:40:00,29.4, 4.5
2024/01/31 12:50:00,29.4, 4.2
2024/01/31 13:00:00,29.4, 4.1
2024/01/31 13:10:00,29.3, 4.2
2024/01/31 13:20:00,28.6, 4.0
2024/01/31 13:30:00,28.3, 3.9
2024/01/31 13:40:00,27.5, 5.1
2024/01/31 13:50:00,28.1, 4.8
2024/01/31 14:00:00,28.1, 4.8
2024/01/31 14:10:00,28.2, 4.6
2024/01/31 14:20:00,28.2, 4.3
2024/01/31 14:30:00,28.3, 4.4
2024/01/31 14:40:00,28.2, 4.1
2024/01/31 14:50:00,28.1, 4.2
2024/01/31 15:00:00,28.2, 4.2
2024/01/31 15:10:00,28.2, 3.9
2024/01/31 15:20:00,28.1, 4.2
2024/01/31 15:30:00,28.1, 4.4
2024/01/31 15:40:00,28.1, 4.2
2024/01/31 15:50:00,28.2, 4.2
2024/01/31 16:00:00,28.2, 3.9
2024/01/31 16:10:00,28.2, 3.7
2024/01/31 16:20:00,28.1, 3.8
2024/01/31 16:30:00,28.2, 3.8
2024/01/31 16:40:00,28.1, 3.6
2024/01/31 16:50:00,28.1, 3.4
2024/01/31 17:00:00,27.9, 3.4
2024/01/31 17:10:00,27.8, 3.4
2024/01/31 17:20:00,27.7, 3.4
2024/01/31 17:30:00,27.6, 3.4
2024/01/31 17:40:00,27.4, 3.4
2024/01/31 17:50:00,27.4, 3.4
2024/01/31 18:00:00,27.2, 3.2
2024/01/31 18:10:00,27.2, 3.2
2024/01/31 18:20:00,27.2, 3.4
2024/01/31 18:30:00,27.2, 3.2
2024/01/31 18:40:00,27.1, 3.3
2024/01/31 18:50:00,27.0, 3.4
2024/01/31 19:00:00,27.0, 3.2
2024/01/31 19:10:00,27.0, 3.4
2024/01/31 19:20:00,27.0, 3.2
2024/01/31 19:30:00,26.9, 3.3
2024/01/31 19:40:00,26.9, 3.2
2024/01/31 19:50:00,26.9, 3.3
2024/01/31 20:00:00,26.9, 3.4
2024/01/31 20:10:00,26.9, 3.2
2024/01/31 20:20:00,26.8, 3.3
2024/01/31 20:30:00,26.6, 3.0
2024/01/31 20:40:00,26.6, 3.2
2024/01/31 20:50:00,26.4, 3.1
2024/01/31 21:00:00,26.4, 3.1
2024/01/31 21:10:00,26.4, 3.1
2024/01/31 21:20:00,26.4, 3.0
2024/01/31 21:30:00,26.4, 3.0
2024/01/31 21:40:00,26.2, 2.8
2024/01/31 21:50:00,25.9, 2.9
2024/01/31 22:00:00,25.9, 3.0
2024/01/31 22:10:00,25.9, 2.9
2024/01/31 22:20:00,25.9, 3.0
2024/01/31 22:30:00,25.9, 3.0
2024/01/31 22:40:00,25.8, 2.8
2024/01/31 22:50:00,25.5, 3.0
2024/01/31 23:00:00,25.5, 3.2
2024/01/31 23:10:00,25.6, 3.0
2024/01/31 23:20:00,25.5, 2.7
2024/01/31 23:30:00,25.5, 2.7
2024/01/31 23:40:00,25.5, 3.1
2024/01/31 23:50:00,25.4, 3.1
